FOX-1D (AO-92) (43137 NORAD) Tracking and Keplerian Element Data

This shows tracking and keplerian element data for the satellite.

Feedback or suggestion? Click here.




ElementValue
Catalog43137
NameFOX-1D (AO-92)
Epoch Orbit4679
Epoch Day319.88295551
Epoch Year2018
RAAN22.8765
Inclination97.5165
Eccentricity0.0007912
Argument of Perigee293.4567
Mean Anonmoly66.5837
Mean Motion15.23024642
Decay Rate1.03E-05
L11 43137U 18004AC 18319.88295551 .00001030 00000-0 46824-4 0 9998
L22 43137 97.5165 22.8765 0007912 293.4567 66.5837 15.23024642 46798

Live tracking and technical data element details for FOX-1D (AO-92) (NORAD 43137). FOX-1D (AO-92) can be tracked NOW for your location showing map with azimuth and elevation plus other details from your city location.

Track the satellite on the map from your city or location and see movement details for azimuth, elevation, latitude, longitude, range, height, and movement on the map or in text.







IsCatalogInMostPopularTable: catalog: 43137, numindb: 661
Update: records affected: 1



GetName: 43137 FOX-1D (AO-92)

Hit Count: updated at: Fri, 16 Nov 2018 10:24:00 GMT